{"data":{"norad_id":57343,"intl_designator":"2023-099R","name":"STARLINK-6379","alt_names":[],"object_type":"PAYLOAD","status":"ACTIVE","operator":null,"country":"US","launch_date":"2023-07-16","launch_site_code":"AFETR","launch_vehicle":null,"mission":null,"orbit_class":"UNKNOWN","rcs_meters":null,"size_class":null,"mass_kg":null,"dimensions":null,"purposes":["comms"],"wikipedia_slug":null,"has_3d_model":false,"image_url":null,"decayed_at":null,"tle_current":{"epoch":"2026-09-20T22:31:45.978240Z","epoch_age_seconds":86419,"freshness":"FRESH","line1":"1 57343U 23099R   26263.93872660 -.00000051  00000+0  76627-5 0  9994","line2":"2 57343  43.0014 230.0412 0001050 263.4174  96.6559 15.27576050175934","mean_motion":15.2757605,"eccentricity":0.000105,"inclination_deg":43.0014,"raan_deg":230.0412,"arg_perigee_deg":263.4174,"mean_anomaly_deg":96.6559,"bstar":7.6627e-6,"rev_number":17593,"period_min":94.266992468231,"perigee_km":482.34049800415,"apogee_km":483.78134956814,"semimajor_km":6861.1979237861,"source":"CELESTRAK","updated_at":"2026-09-21T09:00:33.598943Z"}}}